Regional Weather Roundup
Issued by NWS

Home | Current Version | Previous Version | Text Only | Print | Product List | Glossary On
Versions: 1 2 3 4 5 6 7 8 9 10 11 12 13 14 15 16 17 18 19 20 21 22 23 24 25 26 27 28 29 30 31 32 33 34 35 36 37 38 39 40 41 42 43 44 45 46 47 48 49 50
000
ASUS43 KDMX 201406
RWRIA

WEATHER ROUNDUP FOR IOWA
NATIONAL WEATHER SERVICE DES MOINES IA
900 AM CDT FRI OCT 20 2017

NOTE: "FAIR" INDICATES FEW OR NO CLOUDS BELOW 12,000 FEET WITH NO
SIGNIFICANT WEATHER AND/OR OBSTRUCTIONS TO VISIBILITY.

* - THESE STATIONS ARE NOT NWS STATIONS...THUS NOT UNDER NWS
QUALITY CONTROL.  THEY ALSO DO NOT REPORT WEATHER SUCH
AS PRECIPITATION OR FOG.

IAZ001>003-012>014-020>022-031>034-043>046-201500-
   NORTHWEST IOWA

CITY           SKY/WX    TMP DP  RH WIND       PRES   REMARKS
CARROLL *      MOSUNNY   75  72  88 S15       29.96F
CHEROKEE *     PTSUNNY   58  53  83 S16       29.90F
DENISON *      CLOUDY    59  52  77 S13G20    29.96S
LE MARS *      MOSUNNY   59  52  77 S15G22    29.86F
ORANGE CITY *  MOSUNNY   57  54  88 S15G23    29.86F
SHELDON *      CLOUDY    57  50  77 S9G16     29.86S
SIOUX CITY     MOSUNNY   56  52  86 S10       29.88S
SPENCER        SUNNY     56  50  80 S14       29.90F
STORM LAKE *   MOSUNNY   57  52  82 S17       29.93S
$$

IAZ055>058-069>071-079>083-090>094-201500-
   SOUTHWEST IOWA

CITY           SKY/WX    TMP DP  RH WIND       PRES   REMARKS
ATLANTIC *     SUNNY     57  54  88 S7G14     29.99S
AUDUBON *      SUNNY     57  54  88 S8        29.99S
CLARINDA *     MOSUNNY   57  55  94 S6        30.04R
COUNCIL BLFS * MOSUNNY   57  57 100 SE12      29.96S
CRESTON *      SUNNY     57  52  82 S12       30.05R
HARLAN  *      CLOUDY    59  54  82 MISG      30.00S
LAMONI         SUNNY     55  52  89 S10       30.07S
RED OAK *      CLOUDY    61  54  77 S14       29.99S
SHENANDOAH *   MOSUNNY   61  54  77 S14G22    29.99S
$$

IAZ047>049-059>061-072>074-084-201500-
   CENTRAL IOWA

CITY           SKY/WX    TMP DP  RH WIND       PRES   REMARKS
AMES           CLOUDY    55  54  96 SE6       30.02S
ANKENY *       CLOUDY    59  54  82 S8        30.04F
BOONE *        MOSUNNY   55  52  88 S8        30.00S
CHARITON *     SUNNY     57  52  82 S10       30.06F
DES MOINES     PTSUNNY   59  52  77 S10       30.04R
KNOXVILLE *    SUNNY     57  52  82 S9        30.05S
MARSHALLTOWN   CLOUDY    56  52  86 S9        30.04S
NEWTON *       MOSUNNY   57  54  88 S8        30.06S
PELLA *        SUNNY     59  52  76 S6        30.08S
PERRY *          N/A     56  54  93 S8        30.01S
$$

IAZ004>006-015-016-023>025-035-036-201500-
   NORTH CENTRAL IOWA

CITY           SKY/WX    TMP DP  RH WIND       PRES   REMARKS
ALGONA *       MOSUNNY   55  54  94 S14       29.95S
CLARION *      MOSUNNY   57  55  94 S15       29.99S
ESTHERVILLE    CLOUDY    52  51  97 S15       29.91F
FORT DODGE *   MOSUNNY   59  52  77 S12       29.98S
MASON CITY     MOSUNNY   55  52  89 S10       30.00S
FOREST CITY *    N/A     57  52  82 S9        29.98S
WEBSTER CITY * CLOUDY    57  52  82 VRB7G14   29.98S
IOWA FALLS *     N/A     55  52  90 S8        30.04R
$$

IAZ007>011-017>019-026>030-037>042-050>054-066-201500-
   NORTHEAST IOWA

CITY           SKY/WX    TMP DP  RH WIND       PRES   REMARKS
CEDAR RAPIDS   SUNNY     55  51  86 S8        30.09R
CHARLES CITY * SUNNY     55  54  94 S8        30.03S
CLINTON *      SUNNY     56  51  84 S8        30.14R
DECORAH *      SUNNY     57  52  82 VRB7      30.04R
DUBUQUE        SUNNY     57  51  80 S13       30.11R
MONTICELLO *   SUNNY     57  52  82 S9        30.10R
OELWEIN *      SUNNY     55  54  94 S10       30.07S
WATERLOO       SUNNY     55  50  83 S8        30.04S
$$

IAZ064-065-067-068-078-201500-
   EAST CENTRAL IOWA

CITY           SKY/WX    TMP DP  RH WIND       PRES   REMARKS
DAVENPORT      SUNNY     59  50  72 S9        30.16R
IOWA CITY      MOSUNNY   55  51  86 S5        30.13R
MUSCATINE *    MOSUNNY   54  52  94 CALM      30.14S
QUAD CITIES    SUNNY     60  50  69 S9        30.13R
$$

IAZ062-063-075>077-085>089-095>099-201500-
   SOUTHEAST IOWA

CITY           SKY/WX    TMP DP  RH WIND       PRES   REMARKS
BURLINGTON     SUNNY     59  52  77 S9        30.15R
FAIRFIELD *    SUNNY     57  50  77 S10       30.12R
FORT MADISON * SUNNY     61  54  77 S6        30.16R
KEOKUK *       SUNNY     61  52  72 S10       30.15R
OSKALOOSA *      N/A     55  52  90 S8        30.10R
OTTUMWA        SUNNY     58  52  80 S8        30.09S
WASHINGTON *   SUNNY     59  54  82 S14       30.13R
$$

ABBREVIATIONS USED IN REMARKS
   TC - TEMPERATURES IN CELSIUS
  WCI - WIND CHILL INDEX
   HX - HEAT INDEX
  VSB - VISIBILITY
$$




USA.gov is the U.S. government's official web portal to all federal, state and local government web resources and services.